DW0108 Weather Reports


Display with metric or nautical units.
time (UTC)temp
F
wind
direction
speed
MPH
gust
MPH
rain 1hr
in
rain 24hr
in
rain mn
in
humidity
%
barometer
mb
20260509200805 88 34 1.0 3.0 0.00 0.00 0.01 39 1009.4
20260509194813 88 81 1.0 3.0 0.00 0.00 0.01 47 1009.8
20260509193819 88 85 1.0 4.0 0.00 0.00 0.01 44 1009.8
20260509192848 88 131 1.0 4.0 0.00 0.00 0.01 49 1009.8
20260509191841 87 214 1.0 3.0 0.00 0.00 0.01 51 1009.8
20260509185826 86 213 2.0 4.0 0.00 0.00 0.01 50 1010.1
20260509184831 86 278 2.0 4.0 0.00 0.00 0.01 51 1010.1
20260509183847 86 237 1.0 3.0 0.00 0.00 0.01 51 1010.1
20260509182824 86 266 1.0 3.0 0.00 0.00 0.01 51 1010.4
20260509181843 86 196 1.0 4.0 0.00 0.00 0.01 51 1010.4
20260509180835 85 286 1.0 3.0 0.00 0.00 0.01 53 1010.8
20260509175829 85 261 1.0 2.0 0.00 0.00 0.01 54 1010.8
20260509174813 85 156 0.0 3.0 0.00 0.00 0.01 56 1010.8
20260509172819 84 248 1.0 3.0 0.00 0.00 0.01 57 1010.8
20260509171820 84 228 1.0 3.0 0.00 0.00 0.01 57 1011.1
20260509170845 83 188 1.0 3.0 0.00 0.00 0.01 57 1011.1
20260509165813 82 265 2.0 5.0 0.00 0.00 0.01 60 1011.1
20260509164810 82 236 2.0 4.0 0.00 0.00 0.01 61 1011.1
20260509163807 82 241 2.0 5.0 0.00 0.00 0.01 60 1011.1
20260509162816 81 328 3.0 6.0 0.00 0.00 0.01 59 1011.5
20260509160811 81 237 1.0 3.0 0.00 0.00 0.01 62 1011.5
20260509155832 80 266 2.0 4.0 0.00 0.00 0.01 64 1011.5
20260509154848 80 267 2.0 5.0 0.00 0.00 0.01 65 1011.5
20260509153834 79 299 2.0 4.0 0.00 0.00 0.01 64 1011.5
20260509152808 79 210 1.0 2.0 0.00 0.00 0.01 66 1011.1
20260509151816 79 115 2.0 4.0 0.00 0.00 0.01 65 1011.1
20260509150826 77 240 2.0 4.0 0.00 0.00 0.01 71 1011.1
20260509143829 76 217 2.0 4.0 0.00 0.00 0.01 71 1011.1
20260509142837 76 269 3.0 5.0 0.00 0.00 0.01 71 1011.1
20260509141805 75 273 3.0 5.0 0.00 0.00 0.01 75 1011.5
20260509140844 74 296 4.0 7.0 0.00 0.00 0.01 80 1011.5
20260509135805 72 326 3.0 6.0 0.00 0.00 0.01 82 1011.5
20260509134838 72 327 3.0 5.0 0.00 0.00 0.01 82 1011.5
20260509133819 72 318 2.0 4.0 0.00 0.00 0.01 82 1011.5
20260509132842 72 327 2.0 4.0 0.00 0.00 0.01 81 1011.1
20260509131819 71 341 2.0 5.0 0.00 0.00 0.01 82 1011.1
20260509130847 70 331 2.0 4.0 0.00 0.00 0.01 82 1011.5
20260509125819 69 296 2.0 4.0 0.00 0.00 0.01 83 1011.1
20260509124812 69 292 1.0 3.0 0.00 0.00 0.01 83 1011.5
20260509123833 69 227 1.0 3.0 0.00 0.00 0.01 83 1011.1
20260509122847 70 297 0.0 1.0 0.00 0.00 0.01 84 1011.1
20260509120820 68 174 1.0 3.0 0.00 0.00 0.01 86 1011.1
20260509115839 68 147 0.0 2.0 0.00 0.00 0.01 86 1010.8
20260509112822 68 148 0.0 1.0 0.00 0.00 0.01 83 1010.4
20260509111815 69 132 0.0 1.0 0.00 0.00 0.01 83 1010.1
20260509110812 69 38 0.0 1.0 0.00 0.00 0.01 82 1010.1
20260509105840 69 307 1.0 3.0 0.00 0.00 0.01 81 1009.8
20260509104825 69 335 2.0 4.0 0.00 0.00 0.01 80 1010.1
20260509103806 68 339 2.0 4.0 0.00 0.00 0.01 79 1010.1
20260509102827 69 310 2.0 5.0 0.00 0.00 0.01 77 1010.1
20260509101836 69 282 1.0 2.0 0.00 0.00 0.01 82 1009.8
20260509100820 70 187 1.0 3.0 0.00 0.00 0.01 85 1010.1
20260509094822 71 326 3.0 6.0 0.00 0.00 0.01 85 1009.8
20260509092821 71 164 2.0 5.0 0.00 0.00 0.01 91 1007.7
20260509085822 70 150 2.0 5.0 0.00 0.00 0.01 91 1007.4
20260509084807 70 153 3.0 7.0 0.00 0.00 0.01 91 1007.4
20260509081824 70 162 4.0 9.0 0.00 0.00 0.01 91 1008.4
20260509080847 70 155 3.0 8.0 0.00 0.00 0.01 92 1008.8
20260509075824 70 176 1.0 4.0 0.00 0.00 0.01 92 1009.1
20260509074835 70 126 1.0 3.0 0.00 0.00 0.01 92 1009.1
20260509073806 70 125 1.0 2.0 0.00 0.00 0.01 92 1009.4
20260509072828 70 129 1.0 2.0 0.00 0.00 0.01 91 1010.4
20260509070815 70 108 0.0 2.0 0.00 0.00 0.01 91 1011.8
20260509065836 70 305 2.0 6.0 0.00 0.00 0.01 93 1012.5
20260509063808 70 304 0.0 1.0 0.00 0.00 0.01 93 1012.8
20260509062826 70 293 0.0 1.0 0.00 0.00 0.01 94 1012.1
20260509061825 70 319 1.0 2.0 0.00 0.00 0.01 94 1012.1
20260509060823 69 314 1.0 2.0 0.00 0.00 0.01 94 1012.1
20260509055804 69 265 0.0 1.0 0.00 0.00 0.01 94 1011.8
20260509054818 69 197 0.0 1.0 0.00 0.00 0.01 94 1011.8
20260509053835 69 319 1.0 2.0 0.00 0.00 0.01 94 1011.5
20260509052843 69 182 1.0 2.0 0.00 0.00 0.01 94 1011.8
20260509051828 70 45 0.0 1.0 0.00 0.00 0.01 92 1011.5
20260509050823 70 125 0.0 0.0 0.00 0.00 0.01 92 1010.8
20260509045848 70 134 0.0 2.0 0.00 0.00 1.36 92 1010.8
20260509044823 70 135 0.0 1.0 0.00 0.00 1.35 92 1010.8
20260509043835 70 74 0.0 1.0 0.00 0.00 1.34 92 1010.8
20260509042847 70 113 0.0 1.0 0.00 0.00 1.33 92 1011.1
20260509041834 70 112 0.0 1.0 0.00 0.00 1.32 92 1010.8
20260509040815 71 46 0.0 1.0 0.00 0.00 1.31 91 1011.1
20260509035832 71 68 1.0 1.0 0.00 0.00 1.30 90 1010.8
20260509034824 72 123 1.0 2.0 0.00 0.00 1.29 89 1010.4
20260509033838 72 116 0.0 2.0 0.00 0.00 1.28 89 1010.4
20260509031828 72 136 1.0 2.0 0.00 0.00 1.26 88 1009.8
20260509030837 73 153 1.0 3.0 0.00 0.00 1.25 87 1009.8
20260509025844 73 116 0.0 2.0 0.00 0.00 1.24 87 1009.8
20260509024844 73 148 2.0 4.0 0.00 0.00 1.23 87 1008.8
20260509022807 73 153 2.0 4.0 0.00 0.00 1.21 86 1009.1
20260509021842 73 148 2.0 3.0 0.00 0.00 1.20 86 1009.1
20260509020811 73 111 0.0 2.0 0.00 0.00 1.19 86 1009.1
20260509015843 73 118 1.0 2.0 0.00 0.00 1.18 86 1009.1
20260509014842 73 118 0.0 1.0 0.00 0.00 1.17 86 1009.4
20260509013805 73 46 0.0 1.0 0.00 0.00 1.16 86 1009.1
20260509012847 73 65 0.0 1.0 0.00 0.00 1.15 85 1009.4
20260509010810 74 138 1.0 2.0 0.00 0.00 1.13 83 1008.8
20260509004826 74 144 1.0 2.0 0.00 0.00 1.11 83 1008.8
20260509003813 74 146 1.0 3.0 0.00 0.00 1.10 82 1008.4
20260509002830 74 139 2.0 3.0 0.00 0.00 1.09 82 1008.4
20260509001833 74 137 1.0 3.0 0.00 0.00 1.08 82 1008.8
20260509000807 74 137 1.0 3.0 0.00 0.00 1.07 82 1008.8
20260508233832 74 146 1.0 4.0 0.00 0.00 1.04 81 1009.1
20260508232822 74 152 1.0 3.0 0.00 0.00 1.03 81 1009.1
20260508231836 74 132 1.0 3.0 0.00 0.00 1.02 81 1009.1
20260508225821 74 154 2.0 5.0 0.00 0.00 1.00 80 1009.1
20260508224825 73 167 3.0 7.0 0.00 0.00 9.94 81 1009.1
20260508223825 74 174 2.0 4.0 0.00 0.00 9.85 79 1009.1
20260508222847 74 170 3.0 7.0 0.00 0.00 9.75 80 1009.1
20260508221816 73 157 3.0 6.0 0.00 0.00 9.65 81 1009.1
20260508220812 73 166 3.0 5.0 0.00 0.00 9.55 81 1009.1
20260508215846 72 146 3.0 5.0 0.00 0.00 9.44 81 1009.4
20260508214832 72 157 2.0 6.0 0.00 0.00 9.35 80 1009.1
20260508213808 72 153 2.0 5.0 0.00 0.00 9.25 79 1009.4
20260508212830 73 151 3.0 5.0 0.00 0.00 9.15 78 1009.1
20260508211845 72 158 2.0 5.0 0.00 0.00 9.05 79 1009.8
20260508210835 72 151 4.0 7.0 0.00 0.00 8.94 80 1010.1
20260508205826 72 156 2.0 4.0 0.00 0.00 8.85 78 1010.4
20260508204820 72 147 3.0 7.0 0.00 0.00 8.75 76 1010.8
20260508203820 72 165 2.0 4.0 0.00 0.00 8.65 77 1010.8
20260508202840 72 134 2.0 5.0 0.00 0.00 8.55 77 1010.4
20260508201846 71 116 2.0 8.0 0.00 0.00 8.44 79 1010.4